Terug naar catalogus

ATLAS 5 CENTAUR DEB

LostHEO
NORAD 49354·DEBRIS·🇺🇸 United States

Gelanceerd Oct 17, 2018 vanaf Cape Canaveral Space Force Station

Loading…

Volgende Passages (komende 24 uur)

TLE

VerouderdSource: Space-Track

Epoch: Jun 22, 2022, 06:46 UTC

1 49354U 18079FF  22173.28219752 -.00000058  00000-0  00000+0 0  9994
2 49354  10.2434 188.9384 4692614  22.7434 352.7143  1.70007481  5048

Volg ATLAS 5 CENTAUR DEB in realtime met AllMySat

Download on the App Store